Time,TemperatureF,DewpointF,PressureIn,WindDirection,WindDirectionDegrees,WindSpeedMPH,WindSpeedGustMPH,Humidity,HourlyPrecipIn,Conditions,Clouds,dailyrainin,SoftwareType,DateUTC
2013-10-25 00:01:00,46.0,43.0,30.11,North,-999,0.0,0.0,89,0.00,,,0.00,pywws,2013-10-25 07:01:00,
2013-10-25 00:06:00,46.2,43.2,30.11,North,-999,0.0,0.0,89,0.00,,,0.00,pywws,2013-10-25 07:06:00,
2013-10-25 00:11:00,46.2,43.2,30.11,North,-999,0.0,0.0,89,0.00,,,0.00,pywws,2013-10-25 07:11:00,
2013-10-25 00:16:00,46.2,43.2,30.11,North,-999,0.0,0.0,89,0.00,,,0.00,pywws,2013-10-25 07:16:00,
2013-10-25 00:21:00,46.2,43.2,30.11,North,-999,0.0,0.0,89,0.00,,,0.00,pywws,2013-10-25 07:21:00,
2013-10-25 00:26:00,46.2,43.2,30.12,North,-999,0.0,0.0,89,0.00,,,0.00,pywws,2013-10-25 07:26:00,
2013-10-25 00:31:00,46.2,43.2,30.12,North,-999,0.0,0.0,89,0.00,,,0.00,pywws,2013-10-25 07:31:00,
2013-10-25 00:36:00,46.2,43.2,30.12,North,-999,0.0,0.0,89,0.00,,,0.00,pywws,2013-10-25 07:36:00,
2013-10-25 00:41:00,46.4,43.0,30.12,North,-999,0.0,0.0,88,0.00,,,0.00,pywws,2013-10-25 07:41:00,
2013-10-25 00:46:00,46.4,43.0,30.12,North,-999,0.0,0.0,88,0.00,,,0.00,pywws,2013-10-25 07:46:00,
2013-10-25 00:51:00,46.2,43.2,30.12,North,-999,0.0,0.0,89,0.00,,,0.00,pywws,2013-10-25 07:51:00,
2013-10-25 01:01:00,46.2,43.2,30.12,North,-999,0.0,0.0,89,0.00,,,0.00,pywws,2013-10-25 08:01:00,
2013-10-25 01:06:00,46.2,43.2,30.12,North,-999,0.0,0.0,89,0.00,,,0.00,pywws,2013-10-25 08:06:00,
2013-10-25 01:11:00,46.4,43.0,30.12,North,-999,0.0,0.0,88,0.00,,,0.00,pywws,2013-10-25 08:11:00,
2013-10-25 01:16:00,46.4,43.0,30.12,North,-999,0.0,0.0,88,0.00,,,0.00,pywws,2013-10-25 08:16:00,
2013-10-25 01:21:00,46.6,43.2,30.12,North,-999,0.0,0.0,88,0.00,,,0.00,pywws,2013-10-25 08:21:00,
2013-10-25 01:26:00,46.6,43.2,30.12,North,-999,0.0,0.0,88,0.00,,,0.00,pywws,2013-10-25 08:26:00,
2013-10-25 01:31:00,46.6,43.2,30.13,North,-999,0.0,0.0,88,0.00,,,0.00,pywws,2013-10-25 08:31:00,
2013-10-25 01:36:00,46.6,43.2,30.13,North,-999,0.0,0.0,88,0.00,,,0.00,pywws,2013-10-25 08:36:00,
2013-10-25 01:41:00,46.6,43.2,30.13,North,-999,0.0,0.0,88,0.00,,,0.00,pywws,2013-10-25 08:41:00,
2013-10-25 01:46:00,46.4,43.0,30.13,North,-999,0.0,0.0,88,0.00,,,0.00,pywws,2013-10-25 08:46:00,
2013-10-25 01:51:00,46.6,43.2,30.12,North,-999,0.0,0.0,88,0.00,,,0.00,pywws,2013-10-25 08:51:00,
2013-10-25 02:01:00,46.2,43.2,30.13,North,-999,0.0,0.0,89,0.00,,,0.00,pywws,2013-10-25 09:01:00,
2013-10-25 02:06:00,46.2,43.2,30.13,North,-999,0.0,0.0,89,0.00,,,0.00,pywws,2013-10-25 09:06:00,
2013-10-25 02:11:00,46.0,43.0,30.14,North,-999,0.0,0.0,89,0.00,,,0.00,pywws,2013-10-25 09:11:00,
2013-10-25 02:16:00,46.0,43.0,30.14,North,-999,0.0,0.0,89,0.00,,,0.00,pywws,2013-10-25 09:16:00,
2013-10-25 02:21:00,46.0,43.0,30.14,North,-999,0.0,0.0,89,0.00,,,0.00,pywws,2013-10-25 09:21:00,
2013-10-25 02:26:00,46.0,43.0,30.14,North,-999,0.0,0.0,89,0.00,,,0.00,pywws,2013-10-25 09:26:00,
2013-10-25 02:31:00,45.9,42.8,30.14,North,-999,0.0,0.0,89,0.00,,,0.00,pywws,2013-10-25 09:31:00,
2013-10-25 02:36:00,45.9,42.8,30.14,North,-999,0.0,0.0,89,0.00,,,0.00,pywws,2013-10-25 09:36:00,
2013-10-25 02:41:00,45.9,42.8,30.14,North,-999,0.0,0.0,89,0.00,,,0.00,pywws,2013-10-25 09:41:00,
2013-10-25 02:46:00,46.0,43.0,30.14,North,-999,0.0,0.0,89,0.00,,,0.00,pywws,2013-10-25 09:46:00,
2013-10-25 02:51:00,46.0,43.0,30.15,North,-999,0.0,0.0,89,0.00,,,0.00,pywws,2013-10-25 09:51:00,
2013-10-25 03:01:00,46.0,43.0,30.15,North,-999,0.0,0.0,89,0.00,,,0.00,pywws,2013-10-25 10:01:00,
2013-10-25 03:06:00,45.9,42.8,30.14,North,-999,0.0,0.0,89,0.00,,,0.00,pywws,2013-10-25 10:06:00,
2013-10-25 03:11:00,46.0,43.0,30.15,North,-999,0.0,0.0,89,0.00,,,0.00,pywws,2013-10-25 10:11:00,
2013-10-25 03:16:00,46.0,43.0,30.15,North,-999,0.0,0.0,89,0.00,,,0.00,pywws,2013-10-25 10:16:00,
2013-10-25 03:21:00,46.2,43.2,30.15,North,-999,0.0,0.0,89,0.00,,,0.00,pywws,2013-10-25 10:21:00,
2013-10-25 03:26:00,46.2,43.2,30.16,North,-999,0.0,0.0,89,0.00,,,0.00,pywws,2013-10-25 10:26:00,
2013-10-25 03:31:00,46.0,43.0,30.16,North,-999,0.0,0.0,89,0.00,,,0.00,pywws,2013-10-25 10:31:00,
2013-10-25 03:36:00,46.0,43.0,30.16,North,-999,0.0,0.0,89,0.00,,,0.00,pywws,2013-10-25 10:36:00,
2013-10-25 03:41:00,46.0,43.0,30.16,North,-999,0.0,0.0,89,0.00,,,0.00,pywws,2013-10-25 10:41:00,
2013-10-25 03:46:00,46.0,43.0,30.16,North,-999,0.0,0.0,89,0.00,,,0.00,pywws,2013-10-25 10:46:00,
2013-10-25 03:51:00,45.9,42.8,30.16,North,-999,0.0,0.0,89,0.00,,,0.00,pywws,2013-10-25 10:51:00,
2013-10-25 04:01:00,45.7,42.6,30.16,North,-999,0.0,0.0,89,0.00,,,0.00,pywws,2013-10-25 11:01:00,
2013-10-25 04:06:00,45.7,42.6,30.16,North,-999,0.0,0.0,89,0.00,,,0.00,pywws,2013-10-25 11:06:00,
2013-10-25 04:11:00,45.7,42.6,30.16,North,-999,0.0,0.0,89,0.00,,,0.00,pywws,2013-10-25 11:11:00,
2013-10-25 04:16:00,45.5,42.4,30.16,North,-999,0.0,0.0,89,0.00,,,0.00,pywws,2013-10-25 11:16:00,
2013-10-25 04:21:00,45.5,42.4,30.16,North,-999,0.0,0.0,89,0.00,,,0.00,pywws,2013-10-25 11:21:00,
2013-10-25 04:26:00,45.5,42.4,30.16,North,-999,0.0,0.0,89,0.00,,,0.00,pywws,2013-10-25 11:26:00,
2013-10-25 04:31:00,45.5,42.4,30.16,North,-999,0.0,0.0,89,0.00,,,0.00,pywws,2013-10-25 11:31:00,
2013-10-25 04:36:00,45.5,42.4,30.16,North,-999,0.0,0.0,89,0.00,,,0.00,pywws,2013-10-25 11:36:00,
2013-10-25 04:41:00,45.3,42.3,30.17,North,-999,0.0,0.0,89,0.00,,,0.00,pywws,2013-10-25 11:41:00,
2013-10-25 04:46:00,45.3,42.3,30.16,North,-999,0.0,0.0,89,0.00,,,0.00,pywws,2013-10-25 11:46:00,
2013-10-25 04:51:00,45.3,42.3,30.17,North,-999,0.0,0.0,89,0.00,,,0.00,pywws,2013-10-25 11:51:00,
2013-10-25 05:01:00,45.3,42.3,30.17,North,-999,0.0,0.0,89,0.00,,,0.00,pywws,2013-10-25 12:01:00,
2013-10-25 05:06:00,45.5,42.4,30.16,North,-999,0.0,0.0,89,0.00,,,0.00,pywws,2013-10-25 12:06:00,
2013-10-25 05:11:00,45.3,42.3,30.17,North,-999,0.0,0.0,89,0.01,,,0.01,pywws,2013-10-25 12:11:00,
2013-10-25 05:16:00,45.3,42.3,30.17,North,-999,0.0,0.0,89,0.01,,,0.01,pywws,2013-10-25 12:16:00,
2013-10-25 05:21:00,45.3,42.3,30.17,North,-999,0.0,0.0,89,0.01,,,0.01,pywws,2013-10-25 12:21:00,
2013-10-25 05:26:00,45.3,42.3,30.17,North,-999,0.0,0.0,89,0.01,,,0.01,pywws,2013-10-25 12:26:00,
2013-10-25 05:31:00,45.3,42.3,30.18,North,-999,0.0,0.0,89,0.01,,,0.01,pywws,2013-10-25 12:31:00,
2013-10-25 05:36:00,45.3,42.3,30.18,North,-999,0.0,0.0,89,0.01,,,0.01,pywws,2013-10-25 12:36:00,
2013-10-25 05:41:00,45.1,42.1,30.18,North,-999,0.0,0.0,89,0.01,,,0.01,pywws,2013-10-25 12:41:00,
2013-10-25 05:46:00,45.3,42.3,30.18,North,-999,0.0,0.0,89,0.01,,,0.01,pywws,2013-10-25 12:46:00,
2013-10-25 05:51:00,45.1,42.1,30.18,North,-999,0.0,0.0,89,0.01,,,0.01,pywws,2013-10-25 12:51:00,
2013-10-25 06:01:00,45.0,41.9,30.18,North,-999,0.0,0.0,89,0.01,,,0.01,pywws,2013-10-25 13:01:00,
2013-10-25 06:06:00,45.0,41.9,30.18,North,-999,0.0,0.0,89,0.01,,,0.01,pywws,2013-10-25 13:06:00,
2013-10-25 06:11:00,45.0,41.9,30.18,North,-999,0.0,0.0,89,0.00,,,0.01,pywws,2013-10-25 13:11:00,
2013-10-25 06:16:00,45.0,41.9,30.18,North,-999,0.0,0.0,89,0.00,,,0.01,pywws,2013-10-25 13:16:00,
2013-10-25 06:21:00,45.0,41.9,30.18,North,-999,0.0,0.0,89,0.00,,,0.01,pywws,2013-10-25 13:21:00,
2013-10-25 06:26:00,45.1,42.1,30.19,North,-999,0.0,0.0,89,0.00,,,0.01,pywws,2013-10-25 13:26:00,
2013-10-25 06:31:00,45.0,41.9,30.18,North,-999,0.0,0.0,89,0.00,,,0.01,pywws,2013-10-25 13:31:00,
2013-10-25 06:36:00,45.0,41.9,30.18,North,-999,0.0,0.0,89,0.00,,,0.01,pywws,2013-10-25 13:36:00,
2013-10-25 06:41:00,45.0,41.9,30.19,North,-999,0.0,0.0,89,0.00,,,0.01,pywws,2013-10-25 13:41:00,
2013-10-25 06:46:00,45.0,41.9,30.19,North,-999,0.0,0.0,89,0.00,,,0.01,pywws,2013-10-25 13:46:00,
2013-10-25 06:51:00,45.0,41.9,30.19,North,-999,0.0,0.0,89,0.00,,,0.01,pywws,2013-10-25 13:51:00,
2013-10-25 07:01:00,45.0,41.9,30.19,North,-999,0.0,0.0,89,0.00,,,0.01,pywws,2013-10-25 14:01:00,
2013-10-25 07:06:00,44.8,41.7,30.19,North,-999,0.0,0.0,89,0.00,,,0.01,pywws,2013-10-25 14:06:00,
2013-10-25 07:11:00,45.0,41.9,30.20,North,-999,0.0,0.0,89,0.00,,,0.01,pywws,2013-10-25 14:11:00,
2013-10-25 07:16:00,45.0,41.9,30.20,North,-999,0.0,0.0,89,0.00,,,0.01,pywws,2013-10-25 14:16:00,
2013-10-25 07:21:00,45.0,41.9,30.20,North,-999,0.0,0.0,89,0.00,,,0.01,pywws,2013-10-25 14:21:00,
2013-10-25 07:26:00,45.0,41.9,30.20,North,-999,0.0,0.0,89,0.00,,,0.01,pywws,2013-10-25 14:26:00,
2013-10-25 07:31:00,44.8,41.7,30.20,North,-999,0.0,0.0,89,0.00,,,0.01,pywws,2013-10-25 14:31:00,
2013-10-25 07:36:00,44.8,41.7,30.20,North,-999,0.0,0.0,89,0.00,,,0.01,pywws,2013-10-25 14:36:00,
2013-10-25 07:41:00,44.8,41.7,30.20,North,-999,0.0,0.0,89,0.00,,,0.01,pywws,2013-10-25 14:41:00,
2013-10-25 07:46:00,44.8,41.7,30.20,North,-999,0.0,0.0,89,0.00,,,0.01,pywws,2013-10-25 14:46:00,
2013-10-25 07:51:00,45.0,41.9,30.21,North,-999,0.0,0.0,89,0.00,,,0.01,pywws,2013-10-25 14:51:00,
2013-10-25 08:01:00,45.1,42.1,30.21,North,-999,0.0,0.0,89,0.00,,,0.01,pywws,2013-10-25 15:01:00,
2013-10-25 08:06:00,45.0,41.6,30.21,North,-999,0.0,0.0,88,0.00,,,0.01,pywws,2013-10-25 15:06:00,
2013-10-25 08:11:00,45.0,41.6,30.21,North,-999,0.0,0.0,88,0.00,,,0.01,pywws,2013-10-25 15:11:00,
2013-10-25 08:16:00,45.0,41.6,30.22,North,-999,0.0,0.0,88,0.00,,,0.01,pywws,2013-10-25 15:16:00,
2013-10-25 08:21:00,45.0,41.6,30.22,North,-999,0.0,0.0,88,0.00,,,0.01,pywws,2013-10-25 15:21:00,
2013-10-25 08:26:00,45.0,41.6,30.23,North,-999,0.0,0.0,88,0.00,,,0.01,pywws,2013-10-25 15:26:00,
2013-10-25 08:31:00,45.1,41.8,30.23,North,-999,0.0,0.0,88,0.00,,,0.01,pywws,2013-10-25 15:31:00,
2013-10-25 08:36:00,45.1,41.8,30.23,North,-999,0.0,0.0,88,0.00,,,0.01,pywws,2013-10-25 15:36:00,
2013-10-25 08:41:00,45.1,41.8,30.23,North,-999,0.0,0.0,88,0.00,,,0.01,pywws,2013-10-25 15:41:00,
2013-10-25 08:46:00,45.1,41.8,30.23,North,-999,0.0,0.0,88,0.00,,,0.01,pywws,2013-10-25 15:46:00,
2013-10-25 08:51:00,45.0,41.6,30.24,North,-999,0.0,0.0,88,0.00,,,0.01,pywws,2013-10-25 15:51:00,
2013-10-25 09:01:00,45.0,41.3,30.24,North,-999,0.0,0.0,87,0.00,,,0.01,pywws,2013-10-25 16:01:00,
2013-10-25 09:06:00,45.9,41.9,30.24,North,-999,0.0,0.0,86,0.00,,,0.01,pywws,2013-10-25 16:06:00,
2013-10-25 09:11:00,45.9,41.6,30.24,North,-999,0.0,0.0,85,0.00,,,0.01,pywws,2013-10-25 16:11:00,
2013-10-25 09:16:00,45.9,41.6,30.24,North,-999,0.0,0.0,85,0.00,,,0.01,pywws,2013-10-25 16:16:00,
2013-10-25 09:21:00,45.7,41.4,30.24,North,-999,0.0,0.0,85,0.00,,,0.01,pywws,2013-10-25 16:21:00,
2013-10-25 09:26:00,45.9,41.6,30.23,North,-999,0.0,0.0,85,0.00,,,0.01,pywws,2013-10-25 16:26:00,
2013-10-25 09:31:00,46.0,41.8,30.24,North,-999,0.0,0.0,85,0.00,,,0.01,pywws,2013-10-25 16:31:00,
2013-10-25 09:36:00,46.0,41.8,30.24,North,-999,0.0,0.0,85,0.00,,,0.01,pywws,2013-10-25 16:36:00,
2013-10-25 09:41:00,46.4,42.4,30.24,North,-999,0.0,0.0,86,0.00,,,0.01,pywws,2013-10-25 16:41:00,
2013-10-25 09:46:00,46.4,42.4,30.24,North,-999,0.0,0.0,86,0.00,,,0.01,pywws,2013-10-25 16:46:00,
2013-10-25 09:51:00,46.8,42.8,30.24,North,-999,0.0,0.0,86,0.00,,,0.01,pywws,2013-10-25 16:51:00,
2013-10-25 10:01:00,46.9,43.0,30.24,North,-999,0.0,0.0,86,0.00,,,0.01,pywws,2013-10-25 17:01:00,
2013-10-25 10:06:00,46.9,42.7,30.24,North,-999,0.0,0.0,85,0.00,,,0.01,pywws,2013-10-25 17:06:00,
2013-10-25 10:11:00,47.5,43.5,30.24,North,-999,0.0,0.0,86,0.00,,,0.01,pywws,2013-10-25 17:11:00,
2013-10-25 10:16:00,47.8,43.9,30.24,North,-999,0.0,0.0,86,0.00,,,0.01,pywws,2013-10-25 17:16:00,
2013-10-25 10:21:00,48.0,43.7,30.24,North,-999,0.0,0.0,85,0.00,,,0.01,pywws,2013-10-25 17:21:00,
2013-10-25 10:26:00,47.7,43.4,30.24,North,-999,0.0,0.0,85,0.00,,,0.01,pywws,2013-10-25 17:26:00,
2013-10-25 10:31:00,48.0,43.7,30.25,North,-999,0.0,0.0,85,0.00,,,0.01,pywws,2013-10-25 17:31:00,
2013-10-25 10:36:00,47.8,43.6,30.25,North,-999,0.0,0.0,85,0.00,,,0.01,pywws,2013-10-25 17:36:00,
2013-10-25 10:41:00,47.8,43.2,30.25,North,-999,0.0,0.0,84,0.00,,,0.01,pywws,2013-10-25 17:41:00,
2013-10-25 10:46:00,47.7,43.1,30.25,North,-999,0.0,0.0,84,0.00,,,0.01,pywws,2013-10-25 17:46:00,
2013-10-25 10:51:00,47.8,43.2,30.25,North,-999,0.0,0.0,84,0.00,,,0.01,pywws,2013-10-25 17:51:00,
2013-10-25 11:01:00,48.0,43.4,30.25,North,-999,0.0,0.0,84,0.00,,,0.01,pywws,2013-10-25 18:01:00,
2013-10-25 11:05:00,48.2,43.3,30.25,North,-999,0.0,0.0,83,0.00,,,0.01,pywws,2013-10-25 18:05:00,
2013-10-25 11:10:00,48.4,43.5,30.25,North,-999,0.0,0.0,83,0.00,,,0.01,pywws,2013-10-25 18:10:00,
2013-10-25 11:15:00,48.0,43.4,30.25,North,-999,0.0,0.0,84,0.00,,,0.01,pywws,2013-10-25 18:15:00,
2013-10-25 11:20:00,48.2,43.3,30.26,North,-999,0.0,0.0,83,0.00,,,0.01,pywws,2013-10-25 18:20:00,
2013-10-25 11:25:00,48.6,43.6,30.25,North,-999,0.0,0.0,83,0.00,,,0.01,pywws,2013-10-25 18:25:00,
2013-10-25 11:30:00,48.6,43.6,30.26,North,-999,0.0,0.0,83,0.00,,,0.01,pywws,2013-10-25 18:30:00,
2013-10-25 11:35:00,48.6,43.6,30.26,North,-999,0.0,0.0,83,0.00,,,0.01,pywws,2013-10-25 18:35:00,
2013-10-25 11:40:00,49.1,44.5,30.26,North,-999,0.0,0.0,84,0.00,,,0.01,pywws,2013-10-25 18:40:00,
2013-10-25 11:45:00,48.7,43.8,30.26,North,-999,0.0,0.0,83,0.00,,,0.01,pywws,2013-10-25 18:45:00,
2013-10-25 11:50:00,48.6,43.6,30.26,North,-999,0.0,0.0,83,0.00,,,0.01,pywws,2013-10-25 18:50:00,
2013-10-25 12:01:00,48.7,43.8,30.26,North,-999,0.0,0.0,83,0.00,,,0.01,pywws,2013-10-25 19:01:00,
2013-10-25 12:06:00,49.5,44.5,30.26,North,-999,0.0,0.0,83,0.00,,,0.01,pywws,2013-10-25 19:06:00,
2013-10-25 12:11:00,49.5,44.5,30.26,North,-999,0.0,0.0,83,0.00,,,0.01,pywws,2013-10-25 19:11:00,
2013-10-25 12:16:00,49.8,44.9,30.25,North,-999,0.0,0.0,83,0.00,,,0.01,pywws,2013-10-25 19:16:00,
2013-10-25 12:21:00,50.0,44.7,30.25,North,-999,0.0,0.0,82,0.00,,,0.01,pywws,2013-10-25 19:21:00,
2013-10-25 12:26:00,50.0,44.7,30.26,North,-999,0.0,0.0,82,0.00,,,0.01,pywws,2013-10-25 19:26:00,
2013-10-25 12:31:00,50.0,44.7,30.26,North,-999,0.0,0.0,82,0.00,,,0.01,pywws,2013-10-25 19:31:00,
2013-10-25 12:36:00,50.0,44.4,30.26,North,-999,0.0,0.0,81,0.00,,,0.01,pywws,2013-10-25 19:36:00,
2013-10-25 12:41:00,49.5,44.2,30.26,North,-999,0.0,0.0,82,0.00,,,0.01,pywws,2013-10-25 19:41:00,
2013-10-25 12:46:00,49.5,44.2,30.26,North,-999,0.0,0.0,82,0.00,,,0.01,pywws,2013-10-25 19:46:00,
2013-10-25 12:51:00,50.0,44.4,30.26,North,-999,0.0,0.0,81,0.00,,,0.01,pywws,2013-10-25 19:51:00,
2013-10-25 13:01:00,50.2,44.6,30.26,North,-999,0.0,0.0,81,0.00,,,0.01,pywws,2013-10-25 20:01:00,
2013-10-25 13:06:00,50.5,45.3,30.25,North,-999,0.0,0.0,82,0.00,,,0.01,pywws,2013-10-25 20:06:00,
2013-10-25 13:11:00,50.7,45.4,30.26,North,-999,0.0,0.0,82,0.00,,,0.01,pywws,2013-10-25 20:11:00,
2013-10-25 13:16:00,50.7,45.1,30.26,North,-999,0.0,0.0,81,0.00,,,0.01,pywws,2013-10-25 20:16:00,
2013-10-25 13:21:00,50.7,45.1,30.25,North,-999,0.0,0.0,81,0.00,,,0.01,pywws,2013-10-25 20:21:00,
2013-10-25 13:36:00,50.5,44.6,30.26,North,-999,0.0,0.0,80,0.00,,,0.01,pywws,2013-10-25 20:36:00,
2013-10-25 13:41:00,50.7,44.8,30.26,North,-999,0.0,0.0,80,0.00,,,0.01,pywws,2013-10-25 20:41:00,
2013-10-25 13:51:00,50.7,45.1,30.26,North,-999,0.0,0.0,81,0.00,,,0.01,pywws,2013-10-25 20:51:00,
2013-10-25 14:01:00,50.7,45.1,30.26,North,-999,0.0,0.0,81,0.00,,,0.01,pywws,2013-10-25 21:01:00,
2013-10-25 14:06:00,51.1,45.5,30.25,North,-999,0.0,0.0,81,0.00,,,0.01,pywws,2013-10-25 21:06:00,
2013-10-25 14:11:00,50.9,45.0,30.26,North,-999,0.0,0.0,80,0.00,,,0.01,pywws,2013-10-25 21:11:00,
2013-10-25 14:16:00,50.9,45.0,30.26,North,-999,0.0,0.0,80,0.00,,,0.01,pywws,2013-10-25 21:16:00,
2013-10-25 14:21:00,50.9,45.0,30.26,North,-999,0.0,0.0,80,0.00,,,0.01,pywws,2013-10-25 21:21:00,
2013-10-25 14:26:00,50.7,44.8,30.26,North,-999,0.0,0.0,80,0.00,,,0.01,pywws,2013-10-25 21:26:00,
2013-10-25 14:31:00,50.9,45.3,30.26,North,-999,0.0,0.0,81,0.00,,,0.01,pywws,2013-10-25 21:31:00,
2013-10-25 14:36:00,51.1,45.1,30.26,North,-999,0.0,0.0,80,0.00,,,0.01,pywws,2013-10-25 21:36:00,
2013-10-25 14:41:00,50.7,44.8,30.26,North,-999,0.0,0.0,80,0.00,,,0.01,pywws,2013-10-25 21:41:00,
2013-10-25 14:46:00,50.9,44.6,30.26,North,-999,0.0,0.0,79,0.00,,,0.01,pywws,2013-10-25 21:46:00,
2013-10-25 14:51:00,50.9,45.0,30.26,North,-999,0.0,0.0,80,0.00,,,0.01,pywws,2013-10-25 21:51:00,
2013-10-25 15:01:00,50.9,45.0,30.26,North,-999,0.0,0.0,80,0.00,,,0.01,pywws,2013-10-25 22:01:00,
2013-10-25 15:06:00,50.9,45.0,30.25,North,-999,0.0,0.0,80,0.00,,,0.01,pywws,2013-10-25 22:06:00,
2013-10-25 15:11:00,50.9,45.0,30.25,North,-999,0.0,0.0,80,0.00,,,0.01,pywws,2013-10-25 22:11:00,
2013-10-25 15:16:00,50.9,44.6,30.25,North,-999,0.0,0.0,79,0.00,,,0.01,pywws,2013-10-25 22:16:00,
2013-10-25 15:21:00,50.7,44.4,30.25,North,-999,0.0,0.0,79,0.00,,,0.01,pywws,2013-10-25 22:21:00,
2013-10-25 15:26:00,50.9,45.0,30.25,North,-999,0.0,0.0,80,0.00,,,0.01,pywws,2013-10-25 22:26:00,
2013-10-25 15:31:00,50.9,45.0,30.25,North,-999,0.0,0.0,80,0.00,,,0.01,pywws,2013-10-25 22:31:00,
2013-10-25 15:36:00,51.1,45.5,30.25,North,-999,0.0,0.0,81,0.00,,,0.01,pywws,2013-10-25 22:36:00,
2013-10-25 15:41:00,51.3,45.6,30.25,North,-999,0.0,0.0,81,0.00,,,0.01,pywws,2013-10-25 22:41:00,
2013-10-25 15:46:00,50.9,45.3,30.25,North,-999,0.0,0.0,81,0.00,,,0.01,pywws,2013-10-25 22:46:00,
2013-10-25 15:51:00,50.9,45.3,30.25,North,-999,0.0,0.0,81,0.00,,,0.01,pywws,2013-10-25 22:51:00,
2013-10-25 16:01:00,50.9,45.3,30.26,North,-999,0.0,0.0,81,0.00,,,0.01,pywws,2013-10-25 23:01:00,
2013-10-25 16:06:00,50.7,45.1,30.25,North,-999,0.0,0.0,81,0.00,,,0.01,pywws,2013-10-25 23:06:00,
2013-10-25 16:11:00,50.7,45.4,30.26,North,-999,0.0,0.0,82,0.00,,,0.01,pywws,2013-10-25 23:11:00,
2013-10-25 16:16:00,50.5,44.9,30.26,North,-999,0.0,0.0,81,0.00,,,0.01,pywws,2013-10-25 23:16:00,
2013-10-25 16:21:00,50.5,45.3,30.26,North,-999,0.0,0.0,82,0.00,,,0.01,pywws,2013-10-25 23:21:00,
2013-10-25 16:26:00,50.5,45.3,30.26,North,-999,0.0,0.0,82,0.00,,,0.01,pywws,2013-10-25 23:26:00,
2013-10-25 16:31:00,50.4,45.1,30.26,North,-999,0.0,0.0,82,0.00,,,0.01,pywws,2013-10-25 23:31:00,
2013-10-25 16:36:00,50.2,44.9,30.26,North,-999,0.0,0.0,82,0.00,,,0.01,pywws,2013-10-25 23:36:00,
2013-10-25 16:41:00,50.4,45.1,30.26,North,-999,0.0,0.0,82,0.00,,,0.01,pywws,2013-10-25 23:41:00,
2013-10-25 16:46:00,50.4,45.4,30.26,North,-999,0.0,0.0,83,0.00,,,0.01,pywws,2013-10-25 23:46:00,
2013-10-25 16:51:00,50.2,45.2,30.27,North,-999,0.0,0.0,83,0.00,,,0.01,pywws,2013-10-25 23:51:00,
2013-10-25 17:01:00,50.2,45.2,30.26,North,-999,0.0,0.0,83,0.00,,,0.01,pywws,2013-10-26 00:01:00,
2013-10-25 17:06:00,50.0,45.0,30.27,North,-999,0.0,0.0,83,0.00,,,0.01,pywws,2013-10-26 00:06:00,
2013-10-25 17:11:00,50.2,45.2,30.27,North,-999,0.0,0.0,83,0.00,,,0.01,pywws,2013-10-26 00:11:00,
2013-10-25 17:16:00,50.0,45.0,30.26,North,-999,0.0,0.0,83,0.00,,,0.01,pywws,2013-10-26 00:16:00,
2013-10-25 17:21:00,50.0,45.0,30.27,North,-999,0.0,0.0,83,0.00,,,0.01,pywws,2013-10-26 00:21:00,
2013-10-25 17:26:00,49.8,45.2,30.27,North,-999,0.0,0.0,84,0.00,,,0.01,pywws,2013-10-26 00:26:00,
2013-10-25 17:31:00,50.0,45.0,30.27,North,-999,0.0,0.0,83,0.00,,,0.01,pywws,2013-10-26 00:31:00,
2013-10-25 17:36:00,49.8,45.2,30.27,North,-999,0.0,0.0,84,0.00,,,0.01,pywws,2013-10-26 00:36:00,
2013-10-25 17:41:00,50.0,45.0,30.26,North,-999,0.0,0.0,83,0.00,,,0.01,pywws,2013-10-26 00:41:00,
2013-10-25 17:46:00,49.8,45.5,30.27,North,-999,0.0,0.0,85,0.00,,,0.01,pywws,2013-10-26 00:46:00,
2013-10-25 17:51:00,49.6,45.3,30.27,North,-999,0.0,0.0,85,0.00,,,0.01,pywws,2013-10-26 00:51:00,
2013-10-25 18:01:00,49.6,45.3,30.27,North,-999,0.0,0.0,85,0.00,,,0.01,pywws,2013-10-26 01:01:00,
2013-10-25 18:06:00,49.5,45.1,30.27,North,-999,0.0,0.0,85,0.00,,,0.01,pywws,2013-10-26 01:06:00,
2013-10-25 18:11:00,49.5,45.1,30.27,North,-999,0.0,0.0,85,0.00,,,0.01,pywws,2013-10-26 01:11:00,
2013-10-25 18:16:00,49.3,45.0,30.27,North,-999,0.0,0.0,85,0.00,,,0.01,pywws,2013-10-26 01:16:00,
2013-10-25 18:21:00,49.3,45.3,30.27,North,-999,0.0,0.0,86,0.00,,,0.01,pywws,2013-10-26 01:21:00,
2013-10-25 18:26:00,49.3,45.3,30.27,North,-999,0.0,0.0,86,0.00,,,0.01,pywws,2013-10-26 01:26:00,
2013-10-25 18:31:00,49.3,45.3,30.27,North,-999,0.0,0.0,86,0.00,,,0.01,pywws,2013-10-26 01:31:00,
2013-10-25 18:36:00,49.3,45.3,30.27,North,-999,0.0,0.0,86,0.00,,,0.01,pywws,2013-10-26 01:36:00,
2013-10-25 18:41:00,49.1,45.1,30.27,North,-999,0.0,0.0,86,0.00,,,0.01,pywws,2013-10-26 01:41:00,
2013-10-25 18:46:00,49.3,45.3,30.28,North,-999,0.0,0.0,86,0.00,,,0.01,pywws,2013-10-26 01:46:00,
2013-10-25 18:51:00,49.1,45.1,30.27,North,-999,0.0,0.0,86,0.00,,,0.01,pywws,2013-10-26 01:51:00,
2013-10-25 19:01:00,49.1,45.1,30.28,North,-999,0.0,0.0,86,0.00,,,0.01,pywws,2013-10-26 02:01:00,
2013-10-25 19:06:00,49.1,45.4,30.28,North,-999,0.0,0.0,87,0.00,,,0.01,pywws,2013-10-26 02:06:00,
2013-10-25 19:11:00,49.3,45.6,30.28,North,-999,0.0,0.0,87,0.00,,,0.01,pywws,2013-10-26 02:11:00,
2013-10-25 19:16:00,49.3,45.6,30.28,North,-999,0.0,0.0,87,0.00,,,0.01,pywws,2013-10-26 02:16:00,
2013-10-25 19:21:00,49.3,45.6,30.28,North,-999,0.0,0.0,87,0.00,,,0.01,pywws,2013-10-26 02:21:00,
2013-10-25 19:26:00,49.3,45.6,30.28,North,-999,0.0,0.0,87,0.00,,,0.01,pywws,2013-10-26 02:26:00,
2013-10-25 19:31:00,49.3,45.6,30.28,North,-999,0.0,0.0,87,0.00,,,0.01,pywws,2013-10-26 02:31:00,
2013-10-25 19:36:00,49.3,45.6,30.28,North,-999,0.0,0.0,87,0.00,,,0.01,pywws,2013-10-26 02:36:00,
2013-10-25 19:41:00,49.3,45.6,30.28,North,-999,0.0,0.0,87,0.00,,,0.01,pywws,2013-10-26 02:41:00,
2013-10-25 19:46:00,49.3,45.6,30.29,North,-999,0.0,0.0,87,0.00,,,0.01,pywws,2013-10-26 02:46:00,
2013-10-25 19:51:00,49.3,45.6,30.28,North,-999,0.0,0.0,87,0.00,,,0.01,pywws,2013-10-26 02:51:00,
2013-10-25 20:01:00,49.1,45.4,30.28,North,-999,0.0,0.0,87,0.00,,,0.01,pywws,2013-10-26 03:01:00,
2013-10-25 20:06:00,49.3,45.6,30.28,North,-999,0.0,0.0,87,0.00,,,0.01,pywws,2013-10-26 03:06:00,
2013-10-25 20:11:00,49.3,45.6,30.28,North,-999,0.0,0.0,87,0.00,,,0.01,pywws,2013-10-26 03:11:00,
2013-10-25 20:16:00,49.1,45.4,30.28,North,-999,0.0,0.0,87,0.00,,,0.01,pywws,2013-10-26 03:16:00,
2013-10-25 20:26:00,49.1,45.4,30.28,North,-999,0.0,0.0,87,0.00,,,0.01,pywws,2013-10-26 03:26:00,
2013-10-25 20:31:00,49.1,45.4,30.28,North,-999,0.0,0.0,87,0.00,,,0.01,pywws,2013-10-26 03:31:00,
2013-10-25 20:36:00,49.1,45.4,30.28,North,-999,0.0,0.0,87,0.00,,,0.01,pywws,2013-10-26 03:36:00,
2013-10-25 20:41:00,48.9,45.2,30.28,North,-999,0.0,0.0,87,0.00,,,0.01,pywws,2013-10-26 03:41:00,
2013-10-25 20:46:00,48.7,45.0,30.28,North,-999,0.0,0.0,87,0.00,,,0.01,pywws,2013-10-26 03:46:00,
2013-10-25 20:51:00,48.4,44.7,30.28,North,-999,0.0,0.0,87,0.00,,,0.01,pywws,2013-10-26 03:51:00,
2013-10-25 21:01:00,48.0,44.6,30.28,North,-999,0.0,0.0,88,0.00,,,0.01,pywws,2013-10-26 04:01:00,
2013-10-25 21:06:00,47.8,44.5,30.28,North,-999,0.0,0.0,88,0.00,,,0.01,pywws,2013-10-26 04:06:00,
2013-10-25 21:11:00,46.9,43.6,30.29,North,-999,0.0,0.0,88,0.00,,,0.01,pywws,2013-10-26 04:11:00,
2013-10-25 21:16:00,46.6,43.2,30.28,North,-999,0.0,0.0,88,0.00,,,0.01,pywws,2013-10-26 04:16:00,
2013-10-25 21:21:00,46.2,42.9,30.28,North,-999,0.0,0.0,88,0.00,,,0.01,pywws,2013-10-26 04:21:00,
2013-10-25 21:26:00,46.0,42.7,30.28,North,-999,0.0,0.0,88,0.00,,,0.01,pywws,2013-10-26 04:26:00,
2013-10-25 21:31:00,45.9,42.5,30.29,North,-999,0.0,0.0,88,0.00,,,0.01,pywws,2013-10-26 04:31:00,
2013-10-25 21:36:00,45.5,42.2,30.29,North,-999,0.0,0.0,88,0.00,,,0.01,pywws,2013-10-26 04:36:00,
2013-10-25 21:41:00,45.5,42.2,30.28,North,-999,0.0,0.0,88,0.00,,,0.01,pywws,2013-10-26 04:41:00,
2013-10-25 21:46:00,45.5,42.2,30.29,North,-999,0.0,0.0,88,0.00,,,0.01,pywws,2013-10-26 04:46:00,
2013-10-25 21:51:00,45.5,42.2,30.28,North,-999,0.0,0.0,88,0.00,,,0.01,pywws,2013-10-26 04:51:00,
2013-10-25 22:01:00,45.3,42.0,30.28,North,-999,0.0,0.0,88,0.00,,,0.01,pywws,2013-10-26 05:01:00,
2013-10-25 22:06:00,45.5,42.2,30.29,North,-999,0.0,0.0,88,0.00,,,0.01,pywws,2013-10-26 05:06:00,
2013-10-25 22:11:00,45.3,42.3,30.29,North,-999,0.0,0.0,89,0.00,,,0.01,pywws,2013-10-26 05:11:00,
2013-10-25 22:16:00,45.3,42.3,30.29,North,-999,0.0,0.0,89,0.00,,,0.01,pywws,2013-10-26 05:16:00,
2013-10-25 22:21:00,45.5,42.4,30.29,North,-999,0.0,0.0,89,0.00,,,0.01,pywws,2013-10-26 05:21:00,
2013-10-25 22:31:00,45.7,42.6,30.29,North,-999,0.0,0.0,89,0.00,,,0.01,pywws,2013-10-26 05:31:00,
2013-10-25 22:36:00,45.7,42.6,30.29,North,-999,0.0,0.0,89,0.00,,,0.01,pywws,2013-10-26 05:36:00,
2013-10-25 22:41:00,45.7,42.6,30.29,North,-999,0.0,0.0,89,0.00,,,0.01,pywws,2013-10-26 05:41:00,
2013-10-25 22:46:00,45.7,42.6,30.29,North,-999,0.0,0.0,89,0.00,,,0.01,pywws,2013-10-26 05:46:00,
2013-10-25 22:51:00,45.7,42.6,30.29,North,-999,0.0,0.0,89,0.00,,,0.01,pywws,2013-10-26 05:51:00,
2013-10-25 23:01:00,45.9,42.8,30.29,North,-999,0.0,0.0,89,0.00,,,0.01,pywws,2013-10-26 06:01:00,
2013-10-25 23:06:00,45.9,42.8,30.30,North,-999,0.0,0.0,89,0.00,,,0.01,pywws,2013-10-26 06:06:00,
2013-10-25 23:11:00,46.0,43.3,30.29,North,-999,0.0,0.0,90,0.00,,,0.01,pywws,2013-10-26 06:11:00,
2013-10-25 23:16:00,46.0,43.3,30.29,North,-999,0.0,0.0,90,0.00,,,0.01,pywws,2013-10-26 06:16:00,
2013-10-25 23:21:00,46.0,43.3,30.29,North,-999,0.0,0.0,90,0.00,,,0.01,pywws,2013-10-26 06:21:00,
2013-10-25 23:26:00,46.2,43.5,30.29,North,-999,0.0,0.0,90,0.00,,,0.01,pywws,2013-10-26 06:26:00,
2013-10-25 23:31:00,46.2,43.5,30.29,North,-999,0.0,0.0,90,0.00,,,0.01,pywws,2013-10-26 06:31:00,
2013-10-25 23:36:00,46.4,43.3,30.29,North,-999,0.0,0.0,89,0.00,,,0.01,pywws,2013-10-26 06:36:00,
2013-10-25 23:41:00,46.4,43.3,30.29,North,-999,0.0,0.0,89,0.00,,,0.01,pywws,2013-10-26 06:41:00,
2013-10-25 23:46:00,46.4,43.3,30.29,North,-999,0.0,0.0,89,0.00,,,0.01,pywws,2013-10-26 06:46:00,
2013-10-25 23:51:00,46.6,43.5,30.29,North,-999,0.0,0.0,89,0.00,,,0.01,pywws,2013-10-26 06:51:00,